SCP
0 0 0 0 0 0 0 0 0 0 0 0 0 0 0 0 0 0 0 0 0 0 0 0 0 0 0 0 0 0 0 0 0 0 0 0 0 0 0 0 0 0 0
0 0 0 0 0 0 0 0 0 0 0 0 0 0 0 0 0 0 0 0 0 0 0 0 0 0 0 0 0 0 0 0 0 0 0 0 0 0 0 0 0 0 0
0 0 0 0 0 0 0 0 0 0 0 0 0 0 0 0 0 0 0 0 0 0 0 0 0 0 0 0 0 0 0 0 0 0 0 0 0 0 0 0 0 0 0
0 0 0 0 0 0 0 0 0 0 0 0 0 0 0 0 0 0 0 0 0 0 0 0 0 0 0 0 0 0 0 0 0 0 0 0 0 0 0 0 0 0 0
0 0 0 0 0 0 0 0 0 0 0 0 0 0 0 0 0 0 0 0 0 0 0 0 0 0 0 0 0 0 0 0 0 0 0 0 0 0 0 0 0 0 0
0 0 0 0 0 0 0 0 0 0 0 0 0 0 0 0 0 0 0 0 0 0 0 0 0 0 0 0 0 0 0 0 0 0 0 0 0 0 0 0 0 0 0
0 0 0 0 0 0 0 0 0 0 0 0 0 0 0 0 0 0 0 0 0 0 0 0 0 0 0 0 0 0 0 0 0 0 0 0 0 0 0 0 0 0 0
0 0 0 0 0 0 0 0 0 0 0 0 0 0 0 0 0 0 0 0 0 0 0 0 0 0 0 0 0 0 0 0 0 0 0 0 0 0 0 0 0 0 0
0 0 0 0 0 0 0 0 0 0 0 0 0 0 0 0 0 0 0 0 0 0 0 0 0 0 0 0 0 0 0 0 0 0 0 0 0 0 0 0 0 0 0
0 0 0 0 0 0 0 0 0 0 0 0 0 0 0 0 0 0 0 0 0 0 0 0 0 0 0 0 0 0 0 0 0 0 0 0 0 0 0 0 0 0 0
0 0 0 0 0 0 0 0 0 0 0 0 0 0 0 0 0 0 0 0 0 0 0 0 0 0 0 0 0 0 0 0 0 0 0 0 0 0 0 0 0 0 0
0 0 0 0 0 0 0 0 0 0 0 0 0 0 0 0 0 0 0 0 0 0 0 0 0 0 0 0 0 0 0 0 0 0 0 0 0 0 0 0 0 0 0
0 0 0 0 0 0 0 0 0 0 0 0 0 0 0 0 0 0 0 0 0 0 0 0 0 0 0 0 0 0 0 0 0 0 0 0 0 0 0 0 0 0 0
0 0 0 0 0 0 0 0 0 0 0 0 0 0 0 0 0 0 0 0 0 0 0 0 0 0 0 0 0 0 0 0 0 0 0 0 0 0 0 0 0 0 0
0 0 0 0 0 0 0 0 0 0 0 0 0 0 0 0 0 0 0 0 0 0 0 0 0 0 0 0 0 0 0 0 0 0 0 0 0 0 0 0 0 0 0
0 0 0 0 0 0 0 0 0 0 0 0 0 0 0 0 0 0 0 0 0 0 0 0 0 0 0 0 0 0 0 0 0 0 0 0 0 0 0 0 0 0 0
0 0 0 0 0 0 0 0 0 0 0 0 0 0 0 0 0 0 0 0 0 0 0 0 0 0 0 0 0 0 0 0 0 0 0 0 0 0 0 0 0 0 0
0 0 0 0 0 0 0 0 0 0 0 0 0 0 0 0 0 0 0 0 0 0 0 0 0 0 0 0 0 0 0 0 0 0 0 0 0 0 0 0 0 0 0
0 0 0 0 0 0 0 0 0 0 0 0 0 0 0 0 0 0 0 0 0 0 0 0 0 0 0 0 0 0 0 0 0 0 0 0 0 0 0 0 0 0 0
0 0 0 0 0 0 0 0 0 0 0 0 0 0 0 0 0 0 0 0 0 0 0 0 0 0 0 0 0 0 0 0 0 0 0 0 0 0 0 0 0 0 0
0 0 0 0 0 0 0 0 0 0 0 0 0 0 0 0 0 0 0 0 0 0 0 0 0 0 0 0 0 0 0 0 0 0 0 0 0 0 0 0 0 0 0
0 0 0 0 0 0 0 0 0 0 0 0 0 0 0 0 0 0 0 0 0 0 0 0 0 0 0 0 0 0 0 0 0 0 0 0 0 0 0 0 0 0 0
0 0 0 0 0 0 0 0 0 0 0 0 0 0 0 0 0 0 0 0 0 0 0 0 0 0 0 0 0 0 0 0 0 0 0 0 0 0 0 0 0 0 0
0 0 0 0 0 0 0 0 0 0 0 0 0 0 0 0 0 0 0 0 0 0 0 0 0 0 0 0 0 0 0 0 0 0 0 0 0 0 0 0 0 0 0
0 0 0 0 0 0 0 0 0 0 0 0 0 0 0 0 0 0 0 0 0 0 0 0 0 0 0 0 0 0 0 0 0 0 0 0 0 0 0 0 0 0 0
0 0 0 0 0 0 0 0 0 0 0 0 0 0 0 0 0 0 0 0 0 0 0 0 0 0 0 0 0 0 0 0 0 0 0 0 0 0 0 0 0 0 -0
Wind_Speed_500mb
16 5 7 9 9 8 8 8 11 9 14 23 28 31 30 30 31 31 32 31 31 32 33 34 35 34 35 38 38 33 31 30 28 26 26 26 27 27 26 30 28 27 30
7 0 5 8 11 14 15 16 18 20 24 26 29 30 32 33 34 36 38 38 39 38 37 35 32 30 34 35 35 37 36 30 29 29 28 27 28 28 25 24 31 30 30
4 6 7 8 12 15 19 20 21 23 26 29 31 34 37 39 40 40 41 40 38 37 36 34 30 30 35 34 34 35 36 38 34 30 30 30 30 29 26 26 37 33 31
10 7 7 10 17 23 31 28 28 31 35 38 40 40 41 41 42 43 43 42 41 40 37 34 31 32 35 36 36 35 36 38 40 37 34 34 34 32 32 35 28 39 39
13 11 12 21 24 29 30 31 35 38 40 42 43 43 43 43 41 42 41 39 39 39 37 34 33 33 35 38 38 38 38 38 41 40 38 38 38 39 38 39 40 39 48
13 15 18 25 29 32 37 40 40 38 37 36 35 35 34 36 35 36 38 37 37 36 32 31 32 34 34 34 35 35 37 41 42 42 43 41 41 43 43 42 43 43 48
15 20 25 28 32 37 41 38 36 32 32 33 36 35 35 36 35 35 38 35 34 35 32 32 31 30 30 31 31 34 35 45 45 45 44 45 44 44 44 44 44 40 42
17 23 30 35 37 39 39 36 34 34 35 38 35 35 35 35 37 36 36 36 37 34 33 33 32 36 40 41 42 43 42 43 44 45 45 46 46 45 42 40 38 40 39
25 29 33 34 34 38 38 35 35 36 38 42 43 41 39 36 36 37 36 35 34 32 33 34 37 39 42 44 45 46 47 46 50 51 49 48 45 48 48 45 43 44 41
32 35 35 29 33 35 36 37 36 37 39 40 42 40 36 34 33 32 32 33 35 36 38 41 44 45 47 49 51 53 54 54 57 57 57 55 53 52 51 50 49 48 48
36 35 31 31 36 33 33 34 34 35 38 39 38 36 33 31 32 33 36 38 40 43 45 48 51 55 57 58 58 59 60 61 62 62 64 61 59 58 57 54 50 50 50
38 36 33 35 37 33 33 33 33 32 35 36 36 36 35 35 36 39 41 44 47 50 51 54 56 60 61 64 64 66 65 65 66 67 67 64 65 65 62 57 54 54 55
40 38 38 39 38 34 33 32 31 32 33 35 37 37 38 39 41 43 46 50 53 57 58 60 62 65 68 69 71 70 71 69 73 74 74 70 70 69 69 64 61 57 58
40 39 39 41 39 37 34 32 31 32 33 34 36 40 42 43 46 49 52 55 59 62 65 68 71 72 73 73 76 77 77 80 78 80 80 77 76 75 73 69 62 60 59
40 39 43 41 39 37 32 33 33 33 36 38 39 40 44 49 52 55 56 59 62 67 71 76 78 81 82 82 81 81 81 80 82 81 81 79 78 75 70 63 58 59 58
38 40 43 42 39 35 35 34 34 36 38 39 41 42 45 50 54 59 63 67 69 73 79 81 82 83 83 81 80 78 79 78 77 78 75 75 76 74 73 68 62 60 61
37 38 39 40 37 35 36 35 34 37 40 41 43 46 47 50 55 60 63 67 71 77 79 80 83 82 81 81 84 85 82 79 76 75 77 75 75 72 72 61 55 56 55
35 33 36 37 37 36 36 35 37 39 40 42 44 48 50 53 55 59 65 69 72 76 79 78 78 80 81 84 87 84 82 78 81 81 77 74 71 70 66 53 36 34 39
31 32 35 35 37 38 36 36 38 41 43 45 46 48 50 52 57 61 67 70 72 74 74 75 78 77 79 78 80 74 69 77 77 69 78 66 59 48 47 50 42 46 41
31 34 34 34 35 36 36 38 42 45 46 47 49 51 53 57 62 66 69 71 73 75 76 76 74 70 69 63 71 73 68 63 60 71 50 46 62 61 54 56 60 60 54
34 33 33 32 31 34 38 45 50 51 50 52 53 54 60 66 68 70 72 74 74 74 70 69 66 69 72 68 66 68 69 72 60 50 63 47 42 53 66 72 64 54 65
34 33 31 31 33 37 42 46 49 51 54 55 56 60 64 66 68 69 71 71 70 70 71 72 75 78 65 57 63 70 63 72 59 45 51 64 78 82 73 65 65 50 46
31 32 31 33 36 39 42 45 47 54 58 61 65 67 67 67 68 67 65 64 65 66 67 68 70 66 73 67 52 48 53 44 70 67 60 63 62 63 63 73 56 69 56
33 34 33 34 35 39 43 48 54 56 59 62 64 67 68 67 65 61 58 59 57 57 59 59 47 62 64 72 67 52 55 65 69 84 75 70 62 65 62 55 64 54 53
31 31 31 32 35 41 45 50 52 56 59 63 66 68 67 65 61 59 56 53 51 53 55 56 58 59 59 58 56 62 60 60 58 56 72 63 63 65 66 63 52 59 72
26 28 29 33 38 42 45 49 54 58 62 65 67 67 65 63 61 56 50 48 51 52 54 58 60 60 58 55 52 50 52 56 60 60 65 70 71 80 78 75 56 61 58
Wind_Direction_500mb
168 152 60 29 1 16 17 344 334 335 320 314 316 328 331 334 334 331 328 327 324 321 318 317 316 312 308 311 312 312 309 307 307 305 300 294 285 277 273 275 271 272 269
205 311 23 8 12 2 352 345 335 325 326 325 326 327 323 320 318 317 315 315 316 315 314 313 314 319 305 302 302 304 304 302 298 296 294 292 287 284 282 277 272 272 273
202 317 327 354 345 346 341 337 332 327 321 316 312 310 309 309 309 309 308 310 310 310 311 316 328 326 312 306 302 299 296 294 292 289 287 284 282 277 270 264 276 277 272
227 251 271 330 320 329 321 315 316 313 309 306 303 301 300 301 301 302 303 305 305 305 306 310 324 324 312 305 301 300 299 297 293 288 285 281 277 271 264 260 270 281 276
215 223 292 314 308 299 300 306 307 305 303 300 300 301 301 301 301 299 301 302 303 304 305 314 322 324 318 308 302 298 295 292 288 289 289 285 276 271 267 262 264 271 276
236 271 290 292 291 295 301 305 306 306 306 304 303 301 303 301 301 302 300 302 304 308 322 327 324 323 324 321 321 319 312 292 287 289 287 284 282 278 272 267 265 267 273
246 265 286 294 298 301 303 308 309 308 306 304 305 310 303 303 299 296 302 308 305 302 312 321 324 328 326 324 319 316 315 294 292 288 285 283 282 280 276 274 271 275 272
251 271 279 291 299 304 302 305 308 314 314 313 316 313 309 305 302 301 301 302 302 303 304 304 304 302 302 303 307 308 308 307 300 295 291 287 283 281 279 279 286 284 280
252 271 284 291 301 308 308 305 310 314 318 317 316 314 311 306 304 305 306 303 303 306 306 306 305 305 304 306 305 303 301 301 300 298 297 293 290 284 280 284 290 286 280
254 266 274 287 306 305 304 305 309 311 310 309 310 312 311 310 309 308 307 306 306 306 307 307 304 303 302 301 300 299 298 297 294 294 292 291 289 285 283 286 290 285 279
252 262 275 288 303 303 301 299 303 304 305 307 309 311 309 305 302 301 302 303 305 305 304 303 303 302 302 301 300 298 297 295 292 290 288 288 286 283 281 281 286 285 279
256 267 278 291 298 299 295 297 299 303 303 305 308 308 307 307 306 306 307 306 304 303 302 301 301 300 299 300 299 298 295 295 294 291 288 286 285 282 280 282 284 281 278
262 270 281 289 295 296 295 299 301 303 304 305 304 302 303 303 303 303 304 305 305 304 303 303 303 303 304 303 302 300 299 296 295 294 292 288 284 281 281 282 281 279 275
265 271 278 288 292 293 296 298 300 301 302 300 299 299 300 302 305 305 305 306 306 305 307 309 308 307 306 305 305 303 301 300 295 294 291 291 288 283 279 279 283 280 276
256 270 284 287 287 289 297 300 303 305 303 301 301 302 303 305 306 307 307 309 310 310 310 310 310 309 308 307 305 303 301 299 298 295 294 291 287 285 283 282 283 281 277
263 278 282 284 288 294 297 299 300 302 302 301 303 304 306 305 306 307 309 309 307 308 309 310 309 307 305 304 301 300 299 298 298 297 295 292 290 287 285 283 283 280 279
271 279 285 288 288 292 294 299 305 306 304 305 305 305 306 307 308 309 308 309 310 309 309 310 310 311 309 309 308 309 305 303 299 299 297 296 295 292 288 287 288 283 279
271 284 289 289 288 293 298 302 307 308 307 306 305 304 308 309 308 307 307 308 309 311 312 313 313 313 311 310 311 311 310 307 305 303 301 300 298 293 291 289 294 287 288
273 286 290 292 292 293 297 305 312 313 311 305 305 309 308 307 310 310 310 313 315 316 317 317 316 315 315 313 313 310 305 305 309 305 307 302 291 291 283 279 281 287 288
270 280 286 295 298 294 297 306 311 313 309 309 312 313 313 315 316 317 319 320 320 319 319 317 317 316 314 315 312 308 309 306 303 301 302 297 292 285 283 284 287 288 284
265 279 290 298 297 298 300 303 309 317 318 320 319 320 321 322 323 323 321 321 320 320 321 322 321 318 316 318 314 309 306 301 303 299 302 294 277 285 299 299 302 285 287
262 277 290 294 291 294 300 309 317 319 319 318 318 319 321 322 322 322 321 320 320 321 321 320 318 317 316 313 312 310 311 304 301 297 290 286 286 293 298 294 302 298 297
269 276 281 280 286 294 303 311 313 313 316 321 323 323 324 324 323 320 320 320 321 319 318 316 315 314 312 313 314 306 308 301 313 305 298 296 294 293 288 294 285 295 287
264 267 270 276 288 298 308 313 316 320 322 322 323 325 325 324 323 325 325 323 322 323 322 322 318 311 305 304 307 304 295 299 304 305 299 294 290 290 285 277 286 277 285
259 261 267 278 291 300 306 311 316 319 322 323 323 323 323 325 328 330 328 329 329 330 329 325 324 322 319 313 307 308 307 302 300 305 307 303 301 299 300 281 261 278 290
258 264 276 287 294 301 309 316 320 321 323 324 324 324 326 328 330 331 330 331 332 330 330 330 329 326 321 317 313 307 303 304 304 304 301 300 295 292 289 290 282 280 289
Wind_Speed_850mb
16 5 7 9 9 8 8 8 11 9 14 23 28 31 30 30 31 31 32 31 31 32 33 34 35 34 35 38 38 33 31 30 28 26 26 26 27 27 26 30 28 27 30
7 0 5 8 11 14 15 16 18 20 24 26 29 30 32 33 34 36 38 38 39 38 37 35 32 30 34 35 35 37 36 30 29 29 28 27 28 28 25 24 31 30 30
4 6 7 8 12 15 19 20 21 23 26 29 31 34 37 39 40 40 41 40 38 37 36 34 30 30 35 34 34 35 36 38 34 30 30 30 30 29 26 26 37 33 31
10 7 7 10 17 23 31 28 28 31 35 38 40 40 41 41 42 43 43 42 41 40 37 34 31 32 35 36 36 35 36 38 40 37 34 34 34 32 32 35 28 39 39
13 11 12 21 24 29 30 31 35 38 40 42 43 43 43 43 41 42 41 39 39 39 37 34 33 33 35 38 38 38 38 38 41 40 38 38 38 39 38 39 40 39 48
13 15 18 25 29 32 37 40 40 38 37 36 35 35 34 36 35 36 38 37 37 36 32 31 32 34 34 34 35 35 37 41 42 42 43 41 41 43 43 42 43 43 48
15 20 25 28 32 37 41 38 36 32 32 33 36 35 35 36 35 35 38 35 34 35 32 32 31 30 30 31 31 34 35 45 45 45 44 45 44 44 44 44 44 40 42
17 23 30 35 37 39 39 36 34 34 35 38 35 35 35 35 37 36 36 36 37 34 33 33 32 36 40 41 42 43 42 43 44 45 45 46 46 45 42 40 38 40 39
25 29 33 34 34 38 38 35 35 36 38 42 43 41 39 36 36 37 36 35 34 32 33 34 37 39 42 44 45 46 47 46 50 51 49 48 45 48 48 45 43 44 41
32 35 35 29 33 35 36 37 36 37 39 40 42 40 36 34 33 32 32 33 35 36 38 41 44 45 47 49 51 53 54 54 57 57 57 55 53 52 51 50 49 48 48
36 35 31 31 36 33 33 34 34 35 38 39 38 36 33 31 32 33 36 38 40 43 45 48 51 55 57 58 58 59 60 61 62 62 64 61 59 58 57 54 50 50 50
38 36 33 35 37 33 33 33 33 32 35 36 36 36 35 35 36 39 41 44 47 50 51 54 56 60 61 64 64 66 65 65 66 67 67 64 65 65 62 57 54 54 55
40 38 38 39 38 34 33 32 31 32 33 35 37 37 38 39 41 43 46 50 53 57 58 60 62 65 68 69 71 70 71 69 73 74 74 70 70 69 69 64 61 57 58
40 39 39 41 39 37 34 32 31 32 33 34 36 40 42 43 46 49 52 55 59 62 65 68 71 72 73 73 76 77 77 80 78 80 80 77 76 75 73 69 62 60 59
40 39 43 41 39 37 32 33 33 33 36 38 39 40 44 49 52 55 56 59 62 67 71 76 78 81 82 82 81 81 81 80 82 81 81 79 78 75 70 63 58 59 58
38 40 43 42 39 35 35 34 34 36 38 39 41 42 45 50 54 59 63 67 69 73 79 81 82 83 83 81 80 78 79 78 77 78 75 75 76 74 73 68 62 60 61
37 38 39 40 37 35 36 35 34 37 40 41 43 46 47 50 55 60 63 67 71 77 79 80 83 82 81 81 84 85 82 79 76 75 77 75 75 72 72 61 55 56 55
35 33 36 37 37 36 36 35 37 39 40 42 44 48 50 53 55 59 65 69 72 76 79 78 78 80 81 84 87 84 82 78 81 81 77 74 71 70 66 53 36 34 39
31 32 35 35 37 38 36 36 38 41 43 45 46 48 50 52 57 61 67 70 72 74 74 75 78 77 79 78 80 74 69 77 77 69 78 66 59 48 47 50 42 46 41
31 34 34 34 35 36 36 38 42 45 46 47 49 51 53 57 62 66 69 71 73 75 76 76 74 70 69 63 71 73 68 63 60 71 50 46 62 61 54 56 60 60 54
34 33 33 32 31 34 38 45 50 51 50 52 53 54 60 66 68 70 72 74 74 74 70 69 66 69 72 68 66 68 69 72 60 50 63 47 42 53 66 72 64 54 65
34 33 31 31 33 37 42 46 49 51 54 55 56 60 64 66 68 69 71 71 70 70 71 72 75 78 65 57 63 70 63 72 59 45 51 64 78 82 73 65 65 50 46
31 32 31 33 36 39 42 45 47 54 58 61 65 67 67 67 68 67 65 64 65 66 67 68 70 66 73 67 52 48 53 44 70 67 60 63 62 63 63 73 56 69 56
33 34 33 34 35 39 43 48 54 56 59 62 64 67 68 67 65 61 58 59 57 57 59 59 47 62 64 72 67 52 55 65 69 84 75 70 62 65 62 55 64 54 53
31 31 31 32 35 41 45 50 52 56 59 63 66 68 67 65 61 59 56 53 51 53 55 56 58 59 59 58 56 62 60 60 58 56 72 63 63 65 66 63 52 59 72
26 28 29 33 38 42 45 49 54 58 62 65 67 67 65 63 61 56 50 48 51 52 54 58 60 60 58 55 52 50 52 56 60 60 65 70 71 80 78 75 56 61 58
Wind_Direction_850mb
168 152 60 29 1 16 17 344 334 335 320 314 316 328 331 334 334 331 328 327 324 321 318 317 316 312 308 311 312 312 309 307 307 305 300 294 285 277 273 275 271 272 269
205 311 23 8 12 2 352 345 335 325 326 325 326 327 323 320 318 317 315 315 316 315 314 313 314 319 305 302 302 304 304 302 298 296 294 292 287 284 282 277 272 272 273
202 317 327 354 345 346 341 337 332 327 321 316 312 310 309 309 309 309 308 310 310 310 311 316 328 326 312 306 302 299 296 294 292 289 287 284 282 277 270 264 276 277 272
227 251 271 330 320 329 321 315 316 313 309 306 303 301 300 301 301 302 303 305 305 305 306 310 324 324 312 305 301 300 299 297 293 288 285 281 277 271 264 260 270 281 276
215 223 292 314 308 299 300 306 307 305 303 300 300 301 301 301 301 299 301 302 303 304 305 314 322 324 318 308 302 298 295 292 288 289 289 285 276 271 267 262 264 271 276
236 271 290 292 291 295 301 305 306 306 306 304 303 301 303 301 301 302 300 302 304 308 322 327 324 323 324 321 321 319 312 292 287 289 287 284 282 278 272 267 265 267 273
246 265 286 294 298 301 303 308 309 308 306 304 305 310 303 303 299 296 302 308 305 302 312 321 324 328 326 324 319 316 315 294 292 288 285 283 282 280 276 274 271 275 272
251 271 279 291 299 304 302 305 308 314 314 313 316 313 309 305 302 301 301 302 302 303 304 304 304 302 302 303 307 308 308 307 300 295 291 287 283 281 279 279 286 284 280
252 271 284 291 301 308 308 305 310 314 318 317 316 314 311 306 304 305 306 303 303 306 306 306 305 305 304 306 305 303 301 301 300 298 297 293 290 284 280 284 290 286 280
254 266 274 287 306 305 304 305 309 311 310 309 310 312 311 310 309 308 307 306 306 306 307 307 304 303 302 301 300 299 298 297 294 294 292 291 289 285 283 286 290 285 279
252 262 275 288 303 303 301 299 303 304 305 307 309 311 309 305 302 301 302 303 305 305 304 303 303 302 302 301 300 298 297 295 292 290 288 288 286 283 281 281 286 285 279
256 267 278 291 298 299 295 297 299 303 303 305 308 308 307 307 306 306 307 306 304 303 302 301 301 300 299 300 299 298 295 295 294 291 288 286 285 282 280 282 284 281 278
262 270 281 289 295 296 295 299 301 303 304 305 304 302 303 303 303 303 304 305 305 304 303 303 303 303 304 303 302 300 299 296 295 294 292 288 284 281 281 282 281 279 275
265 271 278 288 292 293 296 298 300 301 302 300 299 299 300 302 305 305 305 306 306 305 307 309 308 307 306 305 305 303 301 300 295 294 291 291 288 283 279 279 283 280 276
256 270 284 287 287 289 297 300 303 305 303 301 301 302 303 305 306 307 307 309 310 310 310 310 310 309 308 307 305 303 301 299 298 295 294 291 287 285 283 282 283 281 277
263 278 282 284 288 294 297 299 300 302 302 301 303 304 306 305 306 307 309 309 307 308 309 310 309 307 305 304 301 300 299 298 298 297 295 292 290 287 285 283 283 280 279
271 279 285 288 288 292 294 299 305 306 304 305 305 305 306 307 308 309 308 309 310 309 309 310 310 311 309 309 308 309 305 303 299 299 297 296 295 292 288 287 288 283 279
271 284 289 289 288 293 298 302 307 308 307 306 305 304 308 309 308 307 307 308 309 311 312 313 313 313 311 310 311 311 310 307 305 303 301 300 298 293 291 289 294 287 288
273 286 290 292 292 293 297 305 312 313 311 305 305 309 308 307 310 310 310 313 315 316 317 317 316 315 315 313 313 310 305 305 309 305 307 302 291 291 283 279 281 287 288
270 280 286 295 298 294 297 306 311 313 309 309 312 313 313 315 316 317 319 320 320 319 319 317 317 316 314 315 312 308 309 306 303 301 302 297 292 285 283 284 287 288 284
265 279 290 298 297 298 300 303 309 317 318 320 319 320 321 322 323 323 321 321 320 320 321 322 321 318 316 318 314 309 306 301 303 299 302 294 277 285 299 299 302 285 287
262 277 290 294 291 294 300 309 317 319 319 318 318 319 321 322 322 322 321 320 320 321 321 320 318 317 316 313 312 310 311 304 301 297 290 286 286 293 298 294 302 298 297
269 276 281 280 286 294 303 311 313 313 316 321 323 323 324 324 323 320 320 320 321 319 318 316 315 314 312 313 314 306 308 301 313 305 298 296 294 293 288 294 285 295 287
264 267 270 276 288 298 308 313 316 320 322 322 323 325 325 324 323 325 325 323 322 323 322 322 318 311 305 304 307 304 295 299 304 305 299 294 290 290 285 277 286 277 285
259 261 267 278 291 300 306 311 316 319 322 323 323 323 323 325 328 330 328 329 329 330 329 325 324 322 319 313 307 308 307 302 300 305 307 303 301 299 300 281 261 278 290
258 264 276 287 294 301 309 316 320 321 323 324 324 324 326 328 330 331 330 331 332 330 330 330 329 326 321 317 313 307 303 304 304 304 301 300 295 292 289 290 282 280 289